sat.trackr.live / text

‹ back to catalog

STARLINK-33589

NORAD 62759 · 2025-015B

PAYLOAD ACTIVE UNKNOWN

§ Identity

Operator
Country
US
Launch date
2025-01-21
Launch site
AFWTR
Launch vehicle
Mass (kg)
RCS (m²)

Purposes: comms

External: N2YO · Heavens-Above · Gunter

§ Orbital elements

Epoch: 2026-05-24T19:10:56.807040Z

Period
94.01 min
Inclination
53.1591°
Eccentricity
0.0000784
Mean motion
15.31712770 rev/d
Perigee alt
470.2 km
Apogee alt
471.2 km
Semi-major
6,848.8 km
B*
2.7152e-4
RAAN
328.9518°
Arg perigee
50.3996°
Mean anomaly
309.7075°
Rev number
7,537

§ Raw data

STARLINK-335891 62759U 25015B   26144.79926860  .00008073  00000+0  27152-3 0  99932 62759  53.1591 328.9518 0000784  50.3996 309.7075 15.31712770 75379

JSON: /api/v1/satellites/62759 · /tle

For live sub-satellite position, see the globe view (requires WebGL).

§ Visibility from observer

Set your observer location to see the next 7 days of passes ≥ 10°. The values pass through the URL so the page stays shareable.

No JS? Fill the form by hand. The geolocation button needs JavaScript.